Total_Precipitation_Accumulation
0.58 0.57 0.62 0.70 0.71 0.75 0.77 0.79 0.76 0.82 0.85 0.90 1.04 1.29 1.55 1.66 1.79 1.69 1.45 1.39 1.52 1.84 2.13 2.10 2.16 2.23 2.16 2.12 2.09 2.32 2.27 2.00 1.83 1.94 1.81 1.66 1.55 1.75 1.81 1.82 1.98 1.98 2.04
0.50 0.48 0.51 0.57 0.60 0.61 0.68 0.73 0.73 0.80 0.83 0.88 1.06 1.23 1.39 1.40 1.56 1.68 1.61 1.52 1.51 1.71 1.90 2.21 2.37 2.34 2.46 2.55 2.51 2.87 3.01 2.50 2.07 2.24 2.53 2.28 2.11 1.92 1.75 1.81 1.94 2.13 2.31
0.51 0.49 0.47 0.52 0.54 0.52 0.53 0.58 0.63 0.71 0.84 0.96 1.17 1.39 1.62 1.70 1.70 1.60 1.68 1.68 1.58 1.65 1.79 1.97 2.16 2.26 2.38 2.54 2.65 2.96 3.49 3.26 2.58 2.40 2.87 2.70 2.52 2.38 2.02 1.83 1.84 1.98 2.30
0.49 0.58 0.55 0.56 0.53 0.52 0.54 0.58 0.67 0.81 1.00 1.19 1.40 1.61 1.80 1.86 1.73 1.72 1.75 1.63 1.54 1.52 1.65 1.79 1.93 2.11 2.18 2.36 2.43 2.55 3.12 3.55 3.21 2.90 2.58 2.29 2.28 2.48 2.48 2.09 1.89 1.89 2.07
0.45 0.51 0.53 0.59 0.62 0.65 0.72 0.78 0.91 1.12 1.36 1.55 1.81 2.09 2.06 1.95 1.86 1.78 1.74 1.69 1.67 1.61 1.62 1.80 1.86 1.89 2.01 2.17 2.50 2.76 3.04 3.30 3.34 3.32 3.08 2.75 2.46 2.12 2.43 2.54 2.21 2.05 1.99
0.46 0.58 0.67 0.80 0.92 0.98 1.15 1.35 1.56 1.68 1.77 1.87 2.01 2.13 2.09 2.10 2.06 1.85 1.73 1.70 1.74 1.78 1.77 1.82 1.85 1.82 1.87 2.01 2.31 2.64 2.87 3.19 3.43 3.41 3.19 3.04 2.89 2.62 2.55 2.46 2.32 2.34 2.18
0.52 0.69 0.88 1.04 1.20 1.39 1.59 1.72 1.85 1.98 1.93 1.89 1.95 2.00 2.00 1.99 2.00 1.93 1.84 1.76 1.72 1.73 1.74 1.79 1.91 1.97 2.02 2.15 2.35 2.55 2.52 2.72 3.16 3.21 3.06 2.98 2.80 2.72 2.79 2.74 2.41 2.26 2.00
0.69 0.82 0.92 1.06 1.27 1.49 1.60 1.63 1.72 1.83 1.80 1.75 1.74 1.74 1.78 1.80 1.76 1.69 1.67 1.73 1.81 1.76 1.65 1.65 1.74 1.84 2.02 2.09 2.16 2.22 2.20 2.34 2.60 2.72 2.92 3.04 2.80 2.71 2.63 2.61 2.66 2.41 2.11
0.96 1.13 1.25 1.39 1.46 1.55 1.66 1.57 1.61 1.69 1.68 1.62 1.58 1.62 1.59 1.64 1.64 1.56 1.57 1.59 1.62 1.53 1.39 1.35 1.40 1.49 1.55 1.66 1.83 1.92 2.01 2.11 2.24 2.36 2.52 2.70 2.82 2.75 2.59 2.59 2.59 2.59 2.38
1.20 1.51 1.80 1.98 1.82 1.60 1.55 1.55 1.51 1.55 1.68 1.70 1.63 1.60 1.64 1.63 1.59 1.60 1.52 1.50 1.55 1.48 1.37 1.28 1.22 1.21 1.18 1.22 1.42 1.61 1.72 1.83 1.98 2.15 2.31 2.38 2.46 2.65 2.63 2.50 2.51 2.45 2.34
1.35 1.53 1.76 1.97 1.91 1.62 1.39 1.43 1.52 1.58 1.65 1.63 1.63 1.62 1.57 1.45 1.43 1.46 1.44 1.41 1.42 1.47 1.45 1.33 1.24 1.33 1.34 1.31 1.37 1.39 1.44 1.52 1.64 1.78 1.91 2.09 2.38 2.66 2.69 2.66 2.54 2.45 2.35
1.29 1.29 1.36 1.44 1.54 1.45 1.27 1.23 1.38 1.50 1.52 1.50 1.54 1.54 1.43 1.32 1.31 1.30 1.24 1.11 1.04 1.04 1.17 1.29 1.21 1.20 1.22 1.27 1.35 1.35 1.38 1.43 1.51 1.60 1.72 1.91 2.21 2.53 2.73 2.82 2.71 2.56 2.45
1.33 1.31 1.22 1.16 1.21 1.22 1.18 1.16 1.29 1.44 1.53 1.52 1.41 1.31 1.25 1.22 1.23 1.17 1.12 1.04 0.90 0.84 0.85 0.96 0.95 1.05 1.18 1.24 1.29 1.29 1.36 1.39 1.44 1.58 1.63 1.68 1.89 2.09 2.27 2.45 2.57 2.54 2.54
1.09 1.06 1.02 0.95 0.96 1.02 1.07 1.12 1.24 1.32 1.47 1.60 1.50 1.37 1.28 1.25 1.23 1.20 1.15 1.06 0.97 0.93 0.94 1.05 1.10 1.05 1.09 1.17 1.26 1.28 1.26 1.29 1.31 1.36 1.43 1.48 1.54 1.74 1.89 1.99 2.19 2.39 2.65
0.75 0.80 0.86 0.84 0.76 0.74 0.73 0.84 0.99 1.17 1.37 1.62 1.63 1.48 1.42 1.39 1.27 1.20 1.19 1.13 1.11 1.04 1.03 1.11 1.21 1.26 1.24 1.23 1.30 1.25 1.23 1.26 1.24 1.27 1.25 1.29 1.34 1.46 1.66 1.68 1.88 2.19 2.48
0.55 0.63 0.70 0.77 0.67 0.57 0.56 0.58 0.69 0.93 1.12 1.32 1.42 1.42 1.35 1.24 1.20 1.20 1.16 1.08 1.04 0.99 0.94 0.94 0.98 1.06 1.13 1.45 1.40 1.20 1.11 1.16 1.22 1.25 1.22 1.25 1.20 1.18 1.29 1.43 1.53 1.81 2.04
0.42 0.47 0.51 0.59 0.62 0.57 0.55 0.56 0.63 0.73 0.88 1.05 1.17 1.19 1.16 1.07 1.07 1.13 1.09 1.00 0.92 0.92 0.86 0.86 0.81 0.83 1.04 1.22 1.04 1.04 1.00 1.11 1.22 1.29 1.33 1.27 1.19 1.22 1.21 1.26 1.27 1.31 1.52
0.41 0.43 0.47 0.49 0.51 0.54 0.59 0.59 0.57 0.60 0.65 0.75 0.84 0.90 0.97 0.97 0.97 1.02 1.06 1.07 0.99 0.89 0.83 0.85 0.88 0.87 0.95 1.11 0.94 0.90 0.93 1.11 1.23 1.23 1.20 1.28 1.29 1.33 1.40 1.29 1.31 1.23 1.22
0.29 0.29 0.30 0.33 0.38 0.41 0.45 0.49 0.54 0.56 0.55 0.55 0.60 0.65 0.71 0.82 0.92 0.91 0.93 1.10 1.13 1.03 0.95 1.01 1.03 0.96 0.94 1.07 1.01 1.00 0.99 1.12 1.21 1.18 1.22 1.33 1.38 1.60 1.67 1.48 1.49 1.40 1.35
0.18 0.19 0.19 0.21 0.25 0.30 0.33 0.38 0.45 0.51 0.51 0.50 0.52 0.58 0.60 0.66 0.79 0.92 0.96 0.95 0.92 0.96 0.99 0.99 0.93 0.90 0.97 1.12 1.07 1.12 1.16 1.23 1.33 1.31 1.35 1.64 1.63 1.70 1.65 1.47 1.57 1.49 1.33
0.17 0.17 0.19 0.22 0.27 0.35 0.38 0.38 0.43 0.46 0.50 0.55 0.54 0.55 0.57 0.60 0.66 0.71 0.72 0.75 0.79 0.79 0.80 0.79 0.82 0.87 0.99 1.07 1.12 1.29 1.30 1.33 1.45 1.44 1.42 1.41 1.64 1.61 1.54 1.51 1.47 1.58 1.48
0.18 0.18 0.20 0.23 0.24 0.30 0.40 0.44 0.47 0.47 0.49 0.52 0.51 0.48 0.49 0.49 0.50 0.55 0.57 0.59 0.68 0.76 0.79 0.82 0.87 0.89 0.93 0.98 1.04 1.17 1.25 1.32 1.46 1.51 1.37 1.26 1.56 1.54 1.46 1.36 1.39 1.59 1.62
0.21 0.22 0.23 0.28 0.32 0.31 0.37 0.45 0.50 0.51 0.49 0.48 0.45 0.47 0.48 0.47 0.43 0.46 0.52 0.59 0.63 0.66 0.70 0.77 0.84 0.93 0.95 0.97 1.09 1.10 1.14 1.24 1.38 1.43 1.44 1.40 1.43 1.35 1.27 1.40 1.47 1.50 1.48
0.20 0.25 0.31 0.34 0.38 0.38 0.39 0.42 0.47 0.49 0.47 0.43 0.40 0.44 0.46 0.46 0.44 0.44 0.48 0.51 0.55 0.57 0.62 0.70 0.75 0.80 0.88 0.93 1.08 1.20 1.20 1.24 1.28 1.29 1.35 1.32 1.25 1.22 1.20 1.27 1.39 1.42 1.50
0.18 0.24 0.33 0.36 0.37 0.41 0.46 0.48 0.46 0.43 0.44 0.42 0.40 0.38 0.44 0.46 0.44 0.44 0.47 0.50 0.52 0.62 0.69 0.70 0.73 0.74 0.75 0.85 1.04 1.22 1.33 1.45 1.56 1.58 1.40 1.27 1.23 1.18 1.14 1.16 1.21 1.28 1.31
0.20 0.24 0.30 0.34 0.36 0.40 0.44 0.46 0.43 0.38 0.39 0.41 0.40 0.38 0.37 0.39 0.43 0.46 0.47 0.52 0.56 0.65 0.69 0.71 0.72 0.73 0.79 0.83 0.85 0.95 1.17 1.46 1.80 2.02 1.85 1.73 1.57 1.44 1.31 1.24 1.19 1.13 1.13